When you browse on this site, cookies collect data to enhance your experience and personalize the content and advertising you see.
Visit our Privacy Policy to learn more. By continuing to use the site, you agree to this use of cookies and data.
  • In Latvia
  • List of Countries
  • For 7 days
  • Water Temperature
  • Satellite Maps
  • Weather Map
  • Weather Widgets
  • user-avatar
    Login

    Hourly Weather Livorno

    Today, 19 January, Saturday

    Time Temperature Precipitation Wind Pressure Humidity
    00:00 +5°C° 0 mm 4 mps 759 mmHg 82%
    01:00 +5°C° 0 mm 3 mps 759 mmHg 84%
    02:00 +5°C° 0 mm 3 mps 759 mmHg 84%
    03:00 +5°C° 0 mm 3 mps 759 mmHg 84%
    04:00 +5°C° 0 mm 3 mps 759 mmHg 84%
    05:00 +4°C° 0 mm 3 mps 759 mmHg 84%
    06:00 +4°C° 0 mm 3 mps 759 mmHg 84%
    07:00 +4°C° 0 mm 4 mps 759 mmHg 84%
    08:00 +5°C° 0 mm 4 mps 759 mmHg 81%
    09:00 +6°C° 0 mm 4 mps 759 mmHg 78%
    10:00 +7°C° 0 mm 4 mps 759 mmHg 74%
    11:00 +9°C° 0 mm 3 mps 759 mmHg 71%
    12:00 +10°C° 0 mm 3 mps 759 mmHg 67%
    13:00 +11°C° 0 mm 3 mps 759 mmHg 63%
    14:00 +10°C° 0 mm 3 mps 759 mmHg 64%
    15:00 +10°C° 0 mm 3 mps 759 mmHg 65%
    16:00 +10°C° 0 mm 3 mps 758 mmHg 66%
    17:00 +9°C° 0 mm 3 mps 758 mmHg 69%
    18:00 +8°C° 0 mm 3 mps 758 mmHg 71%
    19:00 +5°C° 0 mm 3 mps 758 mmHg 74%
    20:00 +5°C° 0 mm 3 mps 758 mmHg 76%
    21:00 +5°C° 0 mm 3 mps 759 mmHg 77%
    22:00 +4°C° 0 mm 3 mps 759 mmHg 78%
    23:00 +4°C° 0 mm 3 mps 759 mmHg 79%

    Tomorrow, 20 January, Sunday

    Time Temperature Precipitation Wind Pressure Humidity
    00:00 +4°C° 0 mm 3 mps 759 mmHg 80%
    01:00 +4°C° 0 mm 3 mps 759 mmHg 81%
    02:00 +4°C° 0 mm 3 mps 758 mmHg 82%
    03:00 +4°C° 0 mm 3 mps 758 mmHg 83%
    04:00 +4°C° 0 mm 3 mps 758 mmHg 83%
    05:00 +3°C° 0 mm 3 mps 758 mmHg 84%
    06:00 +3°C° 0 mm 3 mps 758 mmHg 85%
    07:00 +3°C° 0 mm 3 mps 758 mmHg 85%
    08:00 +4°C° 0 mm 3 mps 759 mmHg 82%
    09:00 +5°C° 0 mm 3 mps 759 mmHg 79%
    10:00 +7°C° 0 mm 3 mps 759 mmHg 76%
    11:00 +8°C° 0 mm 3 mps 759 mmHg 72%
    12:00 +9°C° 0 mm 3 mps 759 mmHg 68%
    13:00 +10°C° 0 mm 2 mps 759 mmHg 65%
    14:00 +10°C° 0 mm 2 mps 759 mmHg 65%
    15:00 +10°C° 0 mm 2 mps 759 mmHg 66%
    16:00 +10°C° 0 mm 2 mps 758 mmHg 67%
    17:00 +9°C° 0 mm 2 mps 759 mmHg 70%
    18:00 +8°C° 0 mm 3 mps 759 mmHg 73%
    19:00 +7°C° 0 mm 3 mps 759 mmHg 75%
    20:00 +5°C° 0 mm 3 mps 759 mmHg 77%
    21:00 +5°C° 0 mm 3 mps 760 mmHg 78%
    22:00 +5°C° 0 mm 4 mps 760 mmHg 79%
    23:00 +4°C° 0 mm 4 mps 760 mmHg 79%

    Day after tomorrow, 21 January, Monday

    Time Temperature Precipitation Wind Pressure Humidity
    00:00 +4°C° 0 mm 4 mps 760 mmHg 80%
    01:00 +4°C° 0 mm 4 mps 760 mmHg 80%
    02:00 +4°C° 0 mm 4 mps 760 mmHg 81%
    03:00 +3°C° 0 mm 4 mps 760 mmHg 82%
    04:00 +3°C° 0 mm 4 mps 760 mmHg 84%
    05:00 +3°C° 0 mm 4 mps 760 mmHg 83%
    06:00 +3°C° 0 mm 4 mps 760 mmHg 83%
    07:00 +3°C° 0 mm 4 mps 760 mmHg 83%
    08:00 +4°C° 0 mm 4 mps 760 mmHg 79%
    09:00 +5°C° 0 mm 4 mps 761 mmHg 75%
    10:00 +6°C° 0 mm 5 mps 761 mmHg 70%
    11:00 +7°C° 0 mm 5 mps 761 mmHg 66%
    12:00 +8°C° 0 mm 4 mps 760 mmHg 62%
    13:00 +10°C° 0 mm 4 mps 760 mmHg 57%
    14:00 +10°C° 0 mm 4 mps 760 mmHg 58%
    15:00 +8°C° 0 mm 5 mps 760 mmHg 60%
    16:00 +8°C° 0 mm 5 mps 760 mmHg 61%
    17:00 +7°C° 0 mm 5 mps 760 mmHg 65%
    18:00 +5°C° 0 mm 5 mps 760 mmHg 68%
    19:00 +4°C° 0 mm 4 mps 760 mmHg 72%
    20:00 +4°C° 0 mm 4 mps 760 mmHg 72%
    21:00 +3°C° 0 mm 4 mps 760 mmHg 72%
    22:00 +3°C° 0 mm 4 mps 760 mmHg 71%
    23:00 +3°C° 0 mm 4 mps 760 mmHg 71%

    22 January, Tuesday

    Time Temperature Precipitation Wind Pressure Humidity
    00:00 +2°C° 0 mm 3 mps 759 mmHg 70%
    01:00 +2°C° 0 mm 3 mps 759 mmHg 69%
    02:00 +2°C° 0 mm 3 mps 759 mmHg 69%
    03:00 +2°C° 0 mm 3 mps 758 mmHg 68%
    04:00 +1°C° 0 mm 3 mps 758 mmHg 68%
    05:00 +1°C° 0 mm 3 mps 758 mmHg 68%
    06:00 +1°C° 0 mm 3 mps 757 mmHg 69%
    07:00 +1°C° 0 mm 3 mps 757 mmHg 69%
    08:00 +2°C° 0 mm 3 mps 757 mmHg 65%
    09:00 +3°C° 0 mm 3 mps 757 mmHg 62%
    10:00 +4°C° 0 mm 3 mps 756 mmHg 58%
    11:00 +6°C° 0 mm 2 mps 756 mmHg 53%
    12:00 +7°C° 0 mm 2 mps 755 mmHg 49%
    13:00 +9°C° 0 mm 1 mps 755 mmHg 44%
    14:00 +9°C° 0 mm 1 mps 754 mmHg 46%
    15:00 +9°C° 0 mm 1 mps 753 mmHg 47%
    16:00 +9°C° 0 mm 1 mps 753 mmHg 48%
    17:00 +8°C° 0 mm 1 mps 752 mmHg 51%
    18:00 +6°C° 0 mm 1 mps 752 mmHg 54%
    19:00 +5°C° 0 mm 1 mps 751 mmHg 57%
    20:00 +5°C° 0 mm 1 mps 751 mmHg 59%
    21:00 +3°C° 0 mm 2 mps 751 mmHg 62%
    22:00 +2°C° 0 mm 3 mps 751 mmHg 64%
    23:00 +2°C° 0 mm 3 mps 750 mmHg 66%

    23 January, Wednesday

    Time Temperature Precipitation Wind Pressure Humidity
    00:00 +1°C° 0 mm 3 mps 749 mmHg 68%
    01:00 0°C° 0 mm 4 mps 749 mmHg 70%
    02:00 0°C° 0 mm 4 mps 748 mmHg 70%
    03:00 0°C° 0 mm 4 mps 748 mmHg 71%
    04:00 -1°C° 0 mm 4 mps 747 mmHg 72%
    05:00 -1°C° 0 mm 4 mps 747 mmHg 70%
    06:00 -1°C° 0 mm 5 mps 747 mmHg 69%
    07:00 -1°C° 0 mm 5 mps 747 mmHg 68%
    08:00 0°C° 0 mm 5 mps 747 mmHg 65%
    09:00 +1°C° 0 mm 6 mps 747 mmHg 62%
    10:00 +2°C° 0 mm 6 mps 747 mmHg 59%
    11:00 +4°C° 0 mm 6 mps 747 mmHg 58%
    12:00 +5°C° 0 mm 6 mps 747 mmHg 56%
    13:00 +7°C° 0 mm 6 mps 747 mmHg 55%
    14:00 +5°C° 0 mm 7 mps 746 mmHg 55%
    15:00 +5°C° 0 mm 7 mps 746 mmHg 56%
    16:00 +5°C° 0 mm 8 mps 746 mmHg 56%
    17:00 +4°C° 0 mm 8 mps 746 mmHg 57%
    18:00 +2°C° 0 mm 9 mps 746 mmHg 59%
    19:00 +1°C° 0 mm 9 mps 746 mmHg 61%
    20:00 +1°C° 0.1 mm 9 mps 746 mmHg 61%
    21:00 +1°C° 0.1 mm 9 mps 747 mmHg 61%
    22:00 +2°C° 0.1 mm 10 mps 747 mmHg 62%
    23:00 +2°C° 0.1 mm 10 mps 747 mmHg 63%

    24 January, Thursday

    Time Temperature Precipitation Wind Pressure Humidity
    00:00 +2°C° 0.1 mm 10 mps 747 mmHg 64%
    01:00 +2°C° 0.1 mm 10 mps 748 mmHg 65%
    02:00 +2°C° 0 mm 9 mps 748 mmHg 67%
    03:00 +2°C° 0 mm 9 mps 748 mmHg 68%
    04:00 +2°C° 0 mm 8 mps 748 mmHg 70%
    05:00 +2°C° 0 mm 8 mps 748 mmHg 70%
    06:00 +1°C° 0 mm 8 mps 748 mmHg 71%
    07:00 +1°C° 0 mm 8 mps 749 mmHg 71%
    08:00 +2°C° 0 mm 8 mps 749 mmHg 69%
    09:00 +4°C° 0 mm 8 mps 749 mmHg 66%
    10:00 +5°C° 0 mm 8 mps 750 mmHg 63%
    11:00 +6°C° 0 mm 8 mps 750 mmHg 61%
    12:00 +6°C° 0 mm 8 mps 750 mmHg 59%
    13:00 +7°C° 0 mm 8 mps 750 mmHg 56%
    14:00 +8°C° 0 mm 7 mps 749 mmHg 57%
    15:00 +6°C° 0 mm 7 mps 749 mmHg 58%
    16:00 +6°C° 0 mm 7 mps 749 mmHg 59%
    17:00 +5°C° 0 mm 6 mps 750 mmHg 63%
    18:00 +4°C° 0 mm 6 mps 750 mmHg 66%
    19:00 +3°C° 0 mm 6 mps 750 mmHg 70%
    20:00 +3°C° 0 mm 5 mps 750 mmHg 70%
    21:00 +2°C° 0 mm 5 mps 751 mmHg 70%
    22:00 +3°C° 0 mm 4 mps 751 mmHg 71%
    23:00 +3°C° 0 mm 4 mps 751 mmHg 71%
    Show more